Regional Weather Roundup
Issued by NWS

Home | Current Version | Previous Version | Text Only | Print | Product List | Glossary On
Versions: 1 2 3 4 5 6 7 8 9 10 11 12 13 14 15 16 17 18 19 20 21 22 23 24 25 26 27 28 29 30 31 32 33 34 35 36 37 38 39 40 41 42 43 44 45 46 47 48 49 50
000
ASUS43 KMPX 220101
RWRMN
WEATHER ROUNDUP FOR MINNESOTA
NATIONAL WEATHER SERVICE TWIN CITIES/CHANHASSEN MN
800 PM CDT TUE OCT 21 2014


NOTE: "FAIR" INDICATES FEW OR NO CLOUDS BELOW 12,000 FEET WITH NO
SIGNIFICANT WEATHER AND/OR OBSTRUCTIONS TO VISIBILITY. N/A MEANS
CURRENT SKY AND/OR WEATHER CONDITIONS ARE NOT AVAILABLE.

MNZ060>063-068>070-220200-
   Twin Cities Metro

CITY           SKY/WX    TMP DP  RH WIND       PRES   REMARKS
TWIN CITIES    CLEAR     52  39  61 SE10      30.15S
ST PAUL        CLEAR     51  39  63 SE8       30.17S
CRYSTAL        CLEAR     53  39  59 SE9       30.14S
BLAINE         CLEAR     52  39  62 SE8       30.15R
LAKEVILLE      CLEAR     43  37  81 E6        30.15S
EDEN PRAIRIE   CLEAR     52  40  63 E10       30.13S
SOUTH ST PAUL  CLEAR     51  39  63 SE3       30.16S
LAKE ELMO      FAIR      46  37  71 SE5       30.18R
$$
MNZ001>005-007-008-013>017-022>024-027-028-220200-
   Northwest Minnesota

CITY           SKY/WX    TMP DP  RH WIND       PRES   REMARKS
BEMIDJI        CLEAR     49  38  64 SE14      30.03R
HALLOCK        CLEAR     55  39  54 SE17      29.85R
ROSEAU         CLEAR     52  39  62 SE16G23   29.93S
WARROAD        CLEAR     52  39  62 SE17      29.96S
THIEF RVR FALL CLEAR     54  37  54 SE16      29.92S
CROOKSTON      CLEAR     55  41  58 S22G28    29.90S
FOSSTON        CLEAR     52  37  58 SE15G24   29.96S
DETROIT LAKES  CLEAR     52  41  66 SE18G25   30.00S
MOORHEAD       CLEAR     57  43  58 SE20G26   29.92S
PARK RAPIDS    CLEAR     50  37  61 SE17      30.05R
MAHNOMEN       FAIR      53  39  57 SE18G26   29.96R
$$
MNZ006-009>011-018-025>026-220200-
   North Central Minnesota

CITY           SKY/WX    TMP DP  RH WIND       PRES   REMARKS
BAUDETTE       CLEAR     47  36  65 SE12G20   30.00S
FLAG ISLAND    CLEAR     48  39  71 SE21G26   29.96S
INTL FALLS     CLEAR     41  34  76 SE14      30.08F
WASKISH        CLEAR     48  37  66 SE12G20   30.01F
BIG FORK       CLEAR     45  36  70 SE10G17   30.10S
LONGVILLE      CLEAR     46  37  71 SE6       30.09S
GRAND RAPIDS   CLEAR     43  34  70 SE8G17    30.13R
CRANE LAKE     CLEAR     37  34  87 SE3       30.16S
ORR            CLEAR     39  32  75 SE12      30.11S
COOK           CLEAR     37  34  87 SE9       30.15R
WALKER         FAIR      50  37  62 SE10G16   30.06R
$$
MNZ012-019>021-037-220200-
   Northeast Minnesota

CITY           SKY/WX    TMP DP  RH WIND       PRES   REMARKS
DULUTH         PTCLDY    41  37  86 E13       30.18R
ELY            CLEAR     36  32  87 SE6       30.18R
HIBBING        CLEAR     38  33  82 SE12      30.16R
EVELETH        CLEAR     36  34  93 CALM      30.17S
DULUTH HARBOR  CLEAR     46  41  81 E16       30.21R
TWO HARBORS    PTCLDY    43  28  56 E9        30.19S
SILVER BAY     PTCLDY    41  37  87 E6        30.21S
GRAND MARAIS     N/A     42  35  76 E14       30.26S
G MARAIS ARPRT CLOUDY    34  30  86 E7        30.23R WCI  28
$$
MNZ029>031-032-039>041-046>048-054>057-064-220200-
   West Central Minnesota

CITY           SKY/WX    TMP DP  RH WIND       PRES   REMARKS
FERGUS FALLS   CLEAR     55  37  50 SE15G24   29.99R
WHEATON        CLEAR     55  39  54 SE20G28   29.97R
MORRIS         CLEAR     55  41  58 SE15      30.00R
ALEXANDRIA     CLEAR     52  41  66 SE16      30.06R
ELBOW LAKE     FAIR      55  41  58 SE16G24   29.99S
WADENA         CLEAR     48  37  66 SE12      30.05R
GLENWOOD       CLEAR     50  41  71 E9        30.06R
APPLETON       CLEAR     59  39  47 SE14      30.00R
BENSON         CLEAR     57  43  58 SE15G24   30.03R
ORTONVILLE     CLEAR     59  39  47 SE16      29.97S
MADISON        CLEAR     63  43  48 SE13      29.99S
WILLMAR        FAIR      55  39  54 SE15      30.08R
$$
MNZ033>034-036-042>043-049>051-058-059-220200-
   Central Minnesota

CITY           SKY/WX    TMP DP  RH WIND       PRES   REMARKS
ST CLOUD       FAIR      53  38  56 SE9       30.12R
SAUK CENTRE    FAIR      50  40  69 E10       30.08R
PAYNESVILLE    CLEAR     50  40  68 E8        30.09R
AITKIN         CLEAR     48  37  66 SE6       30.11R
PINE RIVER     CLEAR     48  39  71 SE9       30.12R
BRAINERD       CLEAR     48  37  65 SE8       30.12R
STAPLES        CLEAR     48  37  66 SE8       30.07S
LONG PRAIRIE   FAIR      50  39  66 E9        30.08S
LITTLE FALLS   CLEAR     48  37  66 SE10      30.11R
LITCHFIELD     CLEAR     52  43  71 E9        30.10R
BUFFALO        CLEAR     50  39  66 E7        30.13S
MAPLE LAKE     CLEAR     53  42  68 E7        30.13R
$$
MNZ037-044-045-052-053-220200-
   East Central Minnesota

CITY           SKY/WX    TMP DP  RH WIND       PRES   REMARKS
PRINCETON      CLEAR     48  39  71 E6        30.14S
MORA           CLEAR     45  36  70 E5        30.17S
CAMBRIDGE      CLEAR     50  37  62 E3        30.14S
RUSH CITY      MOCLDY    46  37  70 E3        30.17S
MOOSE LAKE     CLEAR     41  36  81 E3        30.16R
HINCKLEY       FAIR      46  36  66 SE3       30.17R
CLOQUET        CLEAR     39  37  93 E6        30.17S
MCGREGOR       CLEAR     43  36  75 E7        30.15R
$$
MNZ071>073-080-081-089-090-097-098-220200-
   Southwest Minnesota

CITY           SKY/WX    TMP DP  RH WIND       PRES   REMARKS
MONTEVIDEO     CLEAR     57  43  58 S12       30.03R
GRANITE FALLS  CLEAR     58  41  52 E14G20    30.05R
CANBY          CLEAR     59  42  53 SE12      30.00R
MARSHALL       CLEAR     59  39  47 SE14      30.01S
REDWOOD FALLS  CLEAR     57  40  52 SE12      30.06R
OLIVIA         CLEAR     55  41  58 SE13      30.06R
PIPESTONE      CLEAR     61  41  48 SE12      30.01S
WINDOM         CLEAR     55  41  58 SE9       30.07R
WORTHINGTON    CLEAR     55  41  58 SE12      30.06S
JACKSON        CLEAR     55  39  54 SE13      30.09R
TRACY          CLEAR     59  42  54 SE9       30.04R
SLAYTON        CLEAR     56  40  55 SE13      30.05R
$$
MNZ065>067-074>077-082>085-091>093-220200-
   South Central Minnesota

CITY           SKY/WX    TMP DP  RH WIND       PRES   REMARKS
MANKATO        CLEAR     52  37  58 SE10      30.12R
NEW ULM        CLEAR     55  43  62 SE14      30.09R
ST JAMES       CLEAR     55  39  54 SE9       30.10R
FAIRMONT       CLEAR     54  37  54 SE13      30.10R
GLENCOE        CLEAR     51  43  73 E8        30.11R
FARIBAULT      CLEAR     52  39  62 MISG      30.15S
OWATONNA       CLEAR     50  39  66 SE7       30.15S
WASECA         CLEAR     48  36  61 SE8       30.15S
ALBERT LEA     CLEAR     52  39  62 SE10      30.15R
$$
MNZ078>079-086>088-094>096-220200-
   Southeast Minnesota

CITY           SKY/WX    TMP DP  RH WIND       PRES   REMARKS
ROCHESTER      CLEAR     46  38  73 SE9       30.19R
RED WING         N/A     48  39  71 SE5       30.17R
STANTON        CLEAR     51  39  64 E8        30.15S
DODGE CENTER   CLEAR     45  39  81 SE9       30.17S
WINONA         CLEAR     45  37  76 CALM      30.21R
AUSTIN         CLEAR     45  39  81 SE6       30.17R
PRESTON        CLEAR     45  37  71 SE6       30.19S
$$
ABBREVIATIONS USED IN REMARKS
   TC - TEMPERATURES IN CELSIUS
  WCI - WIND CHILL INDEX
   HX - HEAT INDEX
  VSB - VISIBILITY
$$



USA.gov is the U.S. government's official web portal to all federal, state and local government web resources and services.